Temperature
13 13 13 13 13 13 13 13 13 13 13 13 12 12 12 12 12 12 12 12 12 12 12 12 12 12 12 12 12 12 12 12 12 12 12 13 13 13 13 13 13 13 13
13 13 13 13 13 13 13 13 12 12 12 12 12 12 12 12 12 12 12 12 12 12 12 12 12 12 12 12 12 12 12 12 12 12 12 12 12 12 12 12 12 12 12
12 12 12 12 12 12 12 12 12 12 12 12 12 12 12 12 11 11 11 11 11 11 11 11 11 11 11 11 11 11 11 11 11 11 11 11 12 11 12 12 12 12 12
12 12 12 12 12 12 12 12 12 11 11 11 11 11 11 11 11 10 10 10 10 10 11 11 11 11 11 11 11 11 11 11 11 11 11 11 11 11 11 11 11 11 11
11 11 11 11 12 12 11 11 11 11 11 11 11 11 11 10 10 10 10 10 10 10 10 10 10 10 10 10 10 10 10 10 10 10 10 10 11 11 11 11 11 11 11
11 11 11 11 11 11 11 11 11 11 11 10 10 10 10 10 9 9 9 9 9 9 9 9 9 9 9 10 9 10 9 9 9 10 10 10 10 10 10 10 10 10 10
10 10 10 11 11 10 10 10 10 10 10 10 9 9 9 9 9 9 8 8 8 8 8 8 8 8 9 9 9 9 9 9 9 9 9 9 9 9 9 9 10 10 10
10 10 10 10 10 10 10 10 10 10 9 9 9 8 8 8 8 8 8 8 8 8 8 8 8 8 8 8 8 8 8 8 8 8 8 8 8 8 9 9 9 9 9
10 10 10 9 9 9 9 9 9 9 9 8 8 8 8 9 7 7 7 7 7 7 7 7 7 7 7 7 7 7 8 8 8 8 7 7 7 8 8 8 8 8 8
9 9 9 9 9 9 9 9 9 9 8 8 8 7 7 7 6 7 6 6 6 7 7 7 7 6 6 6 7 7 7 7 7 7 7 7 7 7 7 7 7 7 7
9 9 9 8 8 8 8 8 8 8 8 8 7 7 6 6 6 6 6 6 6 6 6 6 6 6 6 6 6 6 6 6 6 6 6 6 6 6 6 6 6 6 6
8 8 8 8 8 8 8 8 8 7 7 7 7 6 6 5 5 5 5 5 5 5 6 6 5 5 5 5 5 5 5 5 5 6 6 5 6 6 6 6 6 6 6
8 8 8 8 7 7 7 7 7 7 7 7 6 6 6 5 5 5 4 4 4 4 4 5 5 5 5 5 5 5 5 5 5 5 5 5 5 5 5 5 5 5 5
7 7 7 7 7 7 7 7 7 6 6 6 6 6 5 5 5 5 4 4 3 4 4 4 4 4 4 4 4 4 4 4 4 4 4 4 5 5 5 4 4 5 4
7 7 7 7 7 7 6 6 6 6 6 6 5 5 5 5 5 4 4 4 3 3 3 3 3 3 3 4 4 4 4 4 4 4 4 4 4 4 4 4 4 4 4
7 7 7 7 6 6 6 6 6 6 6 5 5 5 5 4 4 4 4 3 3 2 2 2 2 3 3 3 3 3 3 3 3 3 3 3 3 3 3 3 3 3 3
7 6 6 6 6 6 6 5 5 5 5 5 5 4 4 4 4 3 3 3 3 2 2 2 2 2 2 2 2 2 2 3 3 3 3 3 3 2 2 2 2 2 2
6 6 6 6 6 5 5 5 5 5 4 4 4 4 4 4 3 3 3 3 2 2 2 1 2 2 2 2 2 2 2 2 2 2 2 2 2 2 2 2 2 2 2
6 6 6 5 5 5 5 5 4 4 4 4 4 3 3 3 3 3 2 2 2 1 1 1 1 1 1 1 1 1 1 1 1 1 1 1 1 1 1 1 1 1 1
5 5 5 5 5 5 4 4 4 4 4 3 3 3 3 3 2 2 2 1 1 1 1 0 0 0 0 0 0 0 0 1 1 1 1 1 0 0 0 0 0 0 0
5 5 5 5 4 4 4 4 4 3 3 3 3 3 2 2 2 2 1 1 0 0 -0 -0 -1 -1 -1 -1 -1 -1 -1 -1 -0 -0 -0 -0 -0 -0 -0 -0 -0 -0 -0
5 5 5 4 4 4 4 4 3 3 3 3 2 2 2 2 1 1 1 1 0 -0 -1 -1 -1 -1 -1 -2 -2 -2 -2 -2 -2 -2 -1 -1 -1 -1 -1 -1 -1 -1 -1
4 4 4 4 4 4 3 3 3 3 2 2 2 2 1 1 1 1 0 0 -0 -1 -1 -2 -2 -2 -2 -2 -2 -2 -3 -3 -3 -3 -2 -2 -1 -2 -1 -1 -1 -1 -1
4 4 4 4 3 3 3 3 2 2 2 2 2 1 1 1 1 0 -0 -1 -1 -1 -1 -2 -2 -2 -2 -3 -3 -3 -3 -3 -3 -3 -3 -3 -2 -2 -2 -2 -2 -2 -2
4 3 3 3 3 3 3 2 2 2 1 1 1 1 1 0 0 -0 -1 -1 -1 -1 -2 -2 -2 -3 -3 -3 -3 -3 -4 -4 -4 -4 -4 -4 -4 -3 -3 -2 -2 -2 -3
3 3 3 3 3 2 2 2 1 1 1 1 1 1 0 0 -0 -1 -1 -2 -2 -2 -2 -3 -3 -3 -3 -3 -3 -4 -4 -4 -5 -5 -5 -5 -5 -5 -4 -4 -3 -3 -3
Wind_Speed
3 2 2 2 3 3 2 2 2 2 2 2 2 3 3 3 3 2 2 4 5 6 6 6 6 6 6 6 6 5 6 6 7 7 8 8 8 9 9 10 10 11 12
3 3 3 3 3 3 2 2 2 2 2 2 2 2 2 3 2 2 2 2 4 6 7 7 7 7 7 6 6 6 6 7 7 7 7 8 8 9 9 10 10 10 11
3 3 3 3 3 3 3 2 2 2 2 2 2 2 2 2 2 2 2 2 2 5 7 8 8 8 8 8 7 7 7 7 7 7 8 8 8 9 10 10 11 11 11
4 3 3 3 4 3 3 2 2 1 1 2 2 2 2 1 2 2 2 3 3 4 5 8 9 9 9 9 9 8 8 8 8 8 8 8 8 8 9 10 10 11 11
4 3 3 3 4 3 3 2 2 2 2 2 2 2 2 1 1 1 2 3 4 5 4 5 7 9 10 10 10 10 9 9 9 9 9 8 8 8 9 9 9 10 10
4 4 3 4 4 3 3 3 2 2 2 2 2 1 1 1 1 1 1 3 4 5 5 5 5 5 7 10 11 12 12 11 11 10 9 9 9 9 9 9 10 10 10
4 4 3 3 3 3 3 3 3 2 2 2 2 1 1 1 1 1 1 1 3 4 5 6 5 5 5 7 10 12 12 12 12 11 10 9 10 10 10 10 10 10 10
4 4 3 2 3 2 2 3 3 2 2 2 2 2 2 3 2 0 0 1 2 3 4 5 5 6 6 6 8 11 13 13 13 12 11 10 10 10 10 10 10 10 11
3 3 3 3 2 2 2 2 3 2 2 2 2 2 2 2 2 2 1 1 2 3 3 4 5 5 6 6 7 10 13 13 13 12 12 11 11 11 10 10 10 10 10
2 2 2 2 2 2 2 2 2 2 2 2 1 2 3 3 3 3 2 1 2 3 3 3 4 4 6 6 7 10 13 13 13 13 13 12 11 11 11 11 11 11 11
1 1 1 1 1 2 2 2 2 2 2 2 2 2 3 3 4 4 4 3 3 2 2 3 3 4 5 6 7 10 13 13 13 13 13 12 12 11 11 12 11 11 11
1 1 1 1 1 1 2 2 2 2 2 2 2 2 3 3 3 4 5 5 5 3 3 2 2 3 4 6 7 11 11 12 13 13 13 12 12 11 12 12 11 11 12
2 2 2 2 2 2 2 2 2 2 2 2 2 1 2 2 3 4 5 5 5 4 3 2 2 3 4 6 6 10 10 11 12 13 12 12 11 11 11 11 12 12 12
3 3 3 3 3 3 2 2 2 2 2 2 3 3 3 2 2 3 4 4 5 4 4 3 2 2 4 6 7 9 8 10 11 12 11 11 11 10 11 11 12 12 13
3 4 4 4 3 3 3 3 3 3 3 3 3 4 3 3 3 3 3 4 4 4 5 3 2 3 5 6 7 8 9 10 11 11 10 10 9 10 10 11 12 12 13
4 5 4 4 4 4 4 4 4 3 4 3 3 3 3 3 3 3 3 3 4 5 5 4 4 5 6 6 8 9 9 10 9 9 10 9 9 9 10 11 11 12 12
5 5 5 5 5 5 5 5 5 4 4 4 4 4 4 4 3 3 3 4 4 5 7 6 5 6 7 7 7 8 8 8 7 8 9 9 9 10 10 11 11 12 12
6 6 6 6 6 6 5 6 6 5 6 6 5 5 5 4 5 4 4 4 4 5 6 8 7 6 7 7 7 7 7 7 7 8 9 9 9 9 10 11 11 11 11
6 6 6 7 7 6 6 6 7 6 6 6 6 6 6 6 6 5 5 5 4 5 5 7 7 6 6 5 7 7 7 6 7 7 8 8 8 9 10 10 10 11 11
6 6 6 7 7 7 7 7 7 7 7 7 7 7 7 7 7 6 5 6 5 5 6 6 6 6 5 5 5 6 7 7 6 6 6 7 8 9 8 9 10 11 11
6 6 6 6 7 6 7 7 7 7 8 7 7 7 7 7 8 7 6 6 6 5 5 5 6 6 5 5 5 5 7 8 7 4 6 6 6 6 6 7 8 9 11
5 6 6 6 7 6 7 9 8 7 7 8 8 7 7 8 9 11 10 9 8 7 7 6 6 7 7 6 6 6 6 7 5 3 6 7 5 5 5 6 9 11 11
5 6 6 7 7 7 8 9 10 8 8 8 8 8 6 6 8 8 9 10 10 10 10 8 8 8 7 6 7 7 7 7 7 7 7 7 5 6 5 7 10 11 11
6 6 6 7 7 7 8 9 10 9 8 8 8 8 8 8 7 8 7 8 8 8 8 8 8 8 7 6 6 7 8 8 8 5 4 5 6 6 7 7 8 9 10
6 6 6 7 7 7 8 9 9 7 7 8 8 8 9 9 9 10 9 8 8 7 7 8 8 8 7 7 6 5 5 6 6 5 3 4 5 7 7 6 5 8 11
6 6 6 6 7 7 7 8 8 6 7 7 7 8 10 11 10 10 9 9 9 7 6 6 6 7 6 6 6 6 5 5 5 4 2 3 5 5 5 4 5 7 9
Wind_Direction
52 40 39 39 27 14 4 351 338 334 319 320 318 315 314 309 310 313 349 40 17 6 356 348 338 331 327 321 325 323 318 309 297 280 271 267 267 266 269 272 274 275 273
47 40 36 28 21 10 360 349 350 334 327 328 327 326 324 320 321 327 336 34 45 26 16 8 1 354 348 343 340 335 332 327 319 311 297 286 278 274 274 277 279 279 280
42 35 29 26 16 2 356 354 358 343 339 334 331 337 337 334 334 348 359 357 28 42 30 19 13 8 3 357 351 346 343 337 328 316 306 299 292 283 277 276 276 278 280
35 35 32 28 11 1 360 357 349 342 337 333 329 333 334 340 347 16 33 33 24 21 36 33 25 20 13 6 358 351 347 343 339 331 320 309 301 295 290 286 282 280 280
33 38 33 25 15 11 9 359 346 338 334 335 326 329 329 334 15 39 50 45 38 29 25 37 32 26 18 12 5 358 354 349 343 338 334 326 317 309 303 299 296 291 288
32 36 37 26 21 20 14 0 347 343 335 329 310 312 331 354 39 42 48 50 41 30 20 12 7 13 18 12 6 359 354 349 343 338 335 332 328 323 317 311 307 304 299
31 34 33 32 26 23 10 360 350 339 345 336 282 269 232 199 152 61 46 32 33 21 13 8 4 357 357 4 7 1 354 348 344 340 337 333 330 326 322 317 314 312 309
29 30 19 22 22 11 11 5 356 336 341 356 315 282 262 212 180 177 11 16 8 8 6 6 5 4 358 355 3 1 354 348 344 341 340 338 337 334 332 330 324 319 316
27 27 23 12 11 1 360 1 354 341 329 343 345 306 287 278 300 219 230 316 348 348 350 357 360 2 358 355 353 357 353 346 343 341 338 340 340 338 335 333 332 328 326
22 17 15 6 360 354 352 349 343 325 308 301 298 308 296 300 279 274 226 243 307 320 331 337 348 355 354 350 352 355 351 344 341 339 338 337 336 335 334 331 328 326 323
358 354 344 335 336 344 336 323 317 315 295 288 289 285 272 273 265 270 278 284 293 293 315 314 330 342 346 344 344 351 345 342 340 338 336 335 336 335 334 333 331 328 327
264 272 276 287 293 305 312 309 299 288 278 272 269 270 277 272 274 272 278 292 294 290 289 289 305 331 339 337 342 348 341 340 337 334 332 334 338 337 333 331 331 332 330
253 255 255 261 269 274 277 281 283 283 270 262 260 261 270 279 290 285 282 289 290 290 267 259 275 312 330 330 332 338 332 336 335 332 331 334 335 335 335 333 333 332 330
256 255 250 253 256 259 258 255 259 265 269 261 253 248 250 259 272 275 281 291 291 280 262 259 260 283 314 318 328 322 322 329 330 329 331 333 333 332 333 333 331 329 328
252 246 244 247 249 251 253 252 248 246 254 259 258 246 247 253 260 269 273 275 280 285 284 272 270 285 313 313 321 316 315 321 323 325 328 329 330 329 332 331 330 328 324
248 246 242 242 243 243 243 245 249 247 249 252 256 256 250 250 251 257 264 268 265 271 275 285 290 307 316 311 313 310 311 312 311 320 324 325 328 328 328 328 327 324 322
245 244 242 239 239 239 239 240 244 246 247 251 249 251 252 253 252 252 253 258 260 263 271 283 289 299 304 306 310 311 311 311 310 316 321 322 324 324 325 326 325 324 323
243 240 239 239 239 238 238 240 244 244 245 248 249 249 250 248 249 251 249 252 258 259 269 281 289 296 299 306 310 312 314 312 307 313 318 318 319 322 323 325 325 324 324
244 240 237 239 241 240 239 241 243 244 245 248 249 248 248 245 248 247 247 252 258 261 262 273 285 294 297 304 311 310 311 311 310 311 314 314 315 318 320 323 326 325 324
243 243 242 243 243 242 241 240 241 243 245 246 246 246 247 245 249 252 250 251 255 258 261 267 276 286 291 302 307 311 314 317 312 313 313 310 311 314 315 319 323 324 324
243 244 245 244 242 242 240 238 239 242 245 247 246 246 246 246 250 252 253 254 254 256 259 265 274 282 288 300 306 311 308 313 309 309 316 310 310 309 309 312 319 325 324
247 245 246 246 245 243 241 240 243 244 246 248 250 249 246 242 242 243 246 251 256 259 261 263 270 274 284 292 300 302 306 311 309 325 317 305 301 302 307 309 321 324 323
251 250 251 251 251 251 246 245 243 247 248 248 249 249 246 243 240 243 241 242 246 247 254 262 268 273 283 290 294 293 293 296 293 311 312 298 305 304 310 309 313 317 319
251 251 252 254 257 256 249 249 246 246 248 249 247 247 248 248 239 238 243 246 250 251 249 252 261 272 281 283 278 282 291 294 291 289 299 291 307 308 311 305 309 313 317
254 252 253 253 255 258 249 248 248 248 249 251 249 246 245 248 243 234 240 246 251 254 248 247 259 269 275 275 277 278 283 291 295 298 308 293 305 311 303 293 298 309 312
256 257 256 255 254 259 254 249 245 249 253 255 253 248 243 245 246 237 239 243 248 252 250 248 250 252 256 259 260 263 271 277 286 291 308 305 305 321 307 292 303 309 309
Height
1534 1534 1534 1533 1533 1533 1532 1532 1531 1531 1531 1530 1529 1529 1528 1528 1527 1526 1525 1524 1524 1523 1523 1522 1522 1521 1521 1520 1520 1519 1519 1518 1518 1518 1517 1517 1517 1516 1516 1516 1515 1515 1515
1533 1533 1533 1532 1532 1531 1531 1530 1530 1529 1529 1528 1528 1527 1526 1526 1525 1524 1523 1522 1521 1521 1520 1520 1519 1518 1518 1517 1517 1516 1516 1515 1515 1514 1514 1514 1513 1513 1513 1512 1512 1512 1511
1532 1532 1531 1531 1530 1530 1529 1529 1528 1528 1527 1527 1526 1525 1524 1523 1523 1522 1521 1520 1519 1519 1518 1517 1517 1516 1515 1514 1514 1513 1513 1512 1511 1511 1510 1510 1509 1509 1509 1508 1508 1508 1507
1531 1531 1530 1529 1529 1528 1528 1527 1527 1526 1526 1525 1524 1523 1522 1521 1520 1520 1519 1518 1518 1517 1516 1515 1514 1513 1513 1512 1511 1510 1509 1509 1508 1507 1506 1506 1505 1505 1504 1504 1503 1503 1503
1529 1529 1529 1528 1527 1527 1526 1526 1525 1525 1524 1523 1522 1521 1520 1519 1518 1518 1517 1516 1516 1515 1514 1513 1512 1511 1510 1509 1508 1507 1506 1505 1504 1504 1503 1502 1501 1501 1500 1500 1499 1499 1498
1528 1528 1527 1526 1526 1525 1525 1524 1523 1523 1522 1521 1520 1519 1518 1517 1516 1516 1515 1515 1514 1513 1512 1510 1509 1508 1507 1506 1505 1504 1503 1502 1501 1500 1499 1498 1498 1497 1496 1495 1495 1494 1493
1527 1526 1526 1525 1524 1524 1523 1522 1522 1521 1520 1519 1518 1518 1516 1515 1515 1514 1513 1513 1512 1511 1510 1508 1507 1506 1505 1503 1502 1501 1500 1499 1498 1497 1496 1495 1494 1493 1492 1491 1490 1490 1489
1525 1524 1524 1523 1523 1522 1521 1520 1520 1519 1518 1517 1517 1517 1517 1516 1513 1512 1511 1510 1510 1509 1508 1506 1505 1503 1502 1500 1499 1498 1496 1495 1494 1493 1492 1491 1490 1489 1488 1487 1486 1485 1484
1524 1523 1522 1522 1521 1521 1520 1519 1518 1517 1516 1516 1515 1516 1516 1515 1513 1511 1509 1508 1508 1507 1505 1504 1502 1501 1499 1498 1496 1494 1493 1492 1491 1490 1489 1487 1486 1485 1484 1483 1481 1480 1479
1521 1521 1520 1520 1519 1518 1518 1517 1516 1515 1515 1514 1513 1513 1513 1512 1512 1510 1508 1507 1505 1504 1503 1501 1500 1498 1496 1495 1493 1492 1490 1489 1487 1486 1485 1484 1482 1481 1479 1478 1477 1475 1474
1520 1519 1518 1518 1517 1516 1515 1515 1514 1513 1512 1512 1511 1510 1510 1509 1509 1508 1507 1505 1503 1501 1500 1498 1497 1495 1494 1492 1490 1488 1487 1485 1484 1482 1481 1479 1478 1476 1475 1473 1472 1471 1469
1518 1517 1516 1516 1515 1514 1513 1512 1511 1510 1510 1509 1508 1507 1507 1507 1506 1505 1504 1502 1500 1498 1496 1495 1494 1493 1491 1489 1487 1486 1484 1482 1480 1478 1477 1475 1474 1472 1470 1469 1467 1466 1464
1516 1515 1514 1513 1512 1511 1511 1510 1509 1508 1507 1506 1505 1505 1504 1504 1503 1502 1501 1500 1498 1496 1494 1492 1491 1490 1488 1486 1484 1482 1480 1479 1477 1475 1473 1471 1469 1468 1466 1465 1463 1461 1460
1514 1513 1512 1511 1510 1509 1508 1507 1506 1505 1504 1503 1502 1502 1501 1500 1500 1499 1498 1497 1495 1494 1492 1490 1488 1486 1485 1483 1481 1479 1477 1475 1473 1471 1469 1467 1465 1464 1462 1460 1459 1457 1455
1511 1510 1509 1508 1507 1506 1506 1505 1504 1502 1501 1501 1500 1499 1498 1497 1496 1496 1495 1494 1494 1492 1489 1487 1485 1483 1481 1479 1477 1475 1474 1472 1470 1467 1465 1463 1461 1460 1458 1456 1454 1452 1450
1508 1507 1506 1505 1504 1503 1502 1501 1500 1499 1498 1497 1496 1495 1494 1494 1493 1492 1491 1490 1490 1489 1486 1484 1482 1480 1478 1476 1474 1472 1470 1468 1466 1464 1462 1460 1458 1456 1454 1452 1449 1447 1445
1504 1503 1503 1502 1501 1500 1499 1498 1497 1496 1495 1494 1493 1492 1491 1490 1489 1488 1487 1486 1485 1484 1482 1480 1478 1476 1474 1472 1470 1468 1466 1464 1462 1460 1458 1456 1454 1452 1449 1447 1445 1443 1441
1501 1500 1499 1498 1497 1496 1495 1494 1493 1492 1491 1490 1489 1488 1487 1486 1485 1484 1483 1482 1481 1480 1478 1476 1474 1472 1470 1469 1466 1464 1462 1460 1458 1456 1454 1451 1449 1447 1445 1443 1441 1438 1436
1497 1496 1495 1494 1493 1492 1491 1490 1489 1488 1487 1486 1485 1484 1483 1482 1481 1480 1479 1478 1477 1476 1474 1472 1470 1468 1466 1465 1463 1461 1458 1456 1454 1451 1449 1447 1445 1443 1441 1438 1436 1434 1431
1492 1492 1491 1490 1489 1488 1487 1486 1485 1484 1483 1482 1481 1480 1479 1478 1477 1476 1475 1473 1472 1471 1470 1468 1466 1464 1462 1461 1459 1457 1454 1452 1450 1447 1445 1443 1441 1439 1436 1434 1432 1429 1427
1488 1487 1486 1485 1484 1483 1482 1481 1480 1479 1478 1477 1476 1475 1474 1473 1472 1471 1470 1469 1468 1467 1465 1464 1462 1460 1459 1457 1455 1453 1450 1448 1445 1443 1441 1439 1437 1434 1432 1429 1427 1425 1422
1483 1482 1481 1480 1479 1478 1477 1476 1475 1474 1473 1472 1471 1470 1469 1468 1467 1466 1465 1464 1463 1462 1461 1460 1458 1457 1455 1454 1452 1450 1447 1445 1442 1441 1437 1435 1433 1430 1428 1425 1423 1421 1418
1478 1477 1477 1476 1474 1473 1472 1471 1470 1469 1468 1467 1466 1465 1464 1463 1462 1461 1460 1459 1458 1457 1457 1456 1454 1453 1451 1450 1448 1446 1444 1442 1439 1437 1434 1430 1429 1426 1424 1421 1419 1417 1414
1474 1473 1472 1471 1469 1468 1467 1466 1465 1464 1462 1461 1460 1459 1459 1457 1457 1456 1455 1454 1453 1452 1451 1450 1449 1448 1447 1445 1444 1442 1440 1438 1435 1433 1431 1427 1425 1422 1419 1417 1415 1413 1410
1469 1468 1467 1466 1465 1464 1463 1461 1460 1458 1457 1456 1455 1454 1453 1452 1451 1451 1450 1448 1448 1447 1446 1445 1444 1443 1442 1441 1440 1438 1436 1434 1432 1430 1428 1425 1421 1418 1415 1413 1411 1408 1406
1464 1463 1462 1461 1460 1459 1458 1456 1455 1453 1452 1450 1449 1448 1448 1447 1446 1445 1444 1443 1442 1442 1441 1440 1439 1438 1437 1436 1435 1434 1432 1431 1428 1426 1424 1422 1418 1415 1411 1408 1407 1405 1402